Content
SEND FEEDBACK

Daily
Averages
Monthly
Summary
United States of America

HAZELWOOD, MISSOURI


Home > North America > United States > Missouri
Elevation: 570 feet     Latitude: 38 45N     Longitude: 090 22W

WEATHER
 
SELECT A DAY
Number of Records: 196,291;   Date Range: 1/1/95 - 7/22/14
 
SHARE

PRINT THIS DATA

[ ← Previous Day ]
WEATHER ALMANAC - JANUARY 23, 2013
[ Next Day → ]
[ °C ]   °F
Weather ElementAverageHighLow
Temperature26.6 °F43 °F (2:54 pm)10.9 °F (5:54 am)
Dewpoint14.5 °F19.9 °F (4:54 pm)6.1 °F (5:54 am)
Humidity62.6 %84 % (1:54 am)38 % (2:54 pm)
Barometer30.29 in30.40 in (1:54 am)30.14 in (3:54 pm)
Wind Speed4.2 mph12.7 mph (2:54 pm)
Wind Gust17.3 mph (10:54 pm)
Weather ElementAverage
Visibility9.9 mi
Wind DirectionSSE (165.7 °)

Weather ElementTotal
Precipitation---
Heating Degree Days38.1 (Base 65)
Averaged from 23 records on January 23, 2013
WEATHER CONDITIONS BREAKOUT
WIND DIRECTION BREAKOUT
WEATHER BY HOUR - JANUARY 23, 2013
[ °C ]   °F
Local TimeTemperatureDewpointHumidityBarometerVisibilityWind DirectionWind SpeedGust SpeedPrecipitationEventsConditions
1:54 AM12.0 °F8.1 °F84 %30.40 in10.0 miCalmClear
2:54 AM12.9 °F8.1 °F81 %30.39 in10.0 miCalmClear
3:54 AM12.0 °F8.1 °F84 %30.35 in10.0 miCalmClear
4:54 AM12.9 °F8.1 °F81 %30.35 in10.0 miCalmClear
5:54 AM10.9 °F6.1 °F81 %30.34 in10.0 miCalmClear
6:54 AM12.0 °F7.0 °F80 %30.34 in9.0 miCalmClear
7:54 AM12.9 °F9.0 °F84 %30.34 in9.0 miCalmClear
8:54 AM19.0 °F12.0 °F74 %30.32 in10.0 miCalmClear
9:54 AM27.0 °F15.1 °F61 %30.31 in10.0 miWest (260°)5.8 mphClear
10:54 AM30.0 °F16.0 °F56 %30.29 in10.0 miCalmClear
11:54 AM35.1 °F18.0 °F50 %30.25 in10.0 miWNW (290°)5.8 mphPartly Cloudy
12:54 PM37.0 °F18.0 °F46 %30.21 in10.0 miWSW (240°)5.8 mphScattered Clouds
1:54 PM39.9 °F19.0 °F43 %30.19 in10.0 miWest (270°)8.1 mphClear
2:54 PM43.0 °F19.0 °F38 %30.18 in10.0 miWest (280°)12.7 mphClear
3:54 PM42.8 °F19.4 °F39 %30.14 in10.0 miWest (260°)9.2 mphClear
4:54 PM39.0 °F19.9 °F46 %30.19 in10.0 miWest (280°)4.6 mphScattered Clouds
5:54 PM30.9 °F19.9 °F64 %30.21 in10.0 miCalmScattered Clouds
6:54 PM28.0 °F19.0 °F69 %30.25 in10.0 miWest (280°)3.5 mphClear
7:54 PM34.0 °F19.9 °F56 %30.27 in10.0 miWNW (290°)5.8 mphClear
8:54 PM30.9 °F19.9 °F64 %30.30 in10.0 miNNW (340°)6.9 mphClear
9:54 PM32.0 °F17.1 °F54 %30.32 in10.0 miNNW (330°)11.5 mphClear
10:54 PM30.0 °F12.9 °F49 %30.35 in10.0 miNNW (340°)10.4 mph17.3 mphClear
11:54 PM28.0 °F14.0 °F56 %30.38 in10.0 miNorth (350°)6.9 mphClear
Hourly data recorded from KSUS, located miles away from Hazelwood, Missouri







STORIES FROM OUR PARTNERS